Weather in Vinkivtsi

Ukraine / Khmelnitsky District     49°01′58″N   27°14′00″E
temp.,
°C
wind,
m/s
gust,
m/s
humid.,
%
clouds,
%
prec.,
mm/h
press.,
hPa
HPBL,
m
14 june, mon
mon1400:00+10wnw4109777 0.0 1013312
03:00+11nnw478583 0.0 1012349
06:00+11nnw5993100 0.1 1012437
09:00+11nw5997100 3.9 1013423
12:00+12n71297100 5.0 1013825
15:00+14nne61193100 5.6 1014603
18:00+17nne489088 1.0 1013300
21:00+15nne349597 2.7 101469
15 june, tue
tue1500:00+14n5997100 0.1 1015204
03:00+13n5109743 0.1 1015242
06:00+12n5109714 0.1 1016208
09:00+17n688717 0.1 1016440
12:00+21nne677333 0.1 10151124
15:00+22n677266 2.3 10141233
18:00+21n69828 2.9 1014936
21:00+17n511903 3.8 1014316
16 june, wed
wed1600:00+15nnw512940 0.0 1014265
03:00+14n513952 0.0 1014292
06:00+13n511945 0.0 1014259
09:00+18n69785 0.0 1015495
12:00+21n676864 0.0 10151230
15:00+22nne6866100 0.3 10151431
18:00+22nne59740 0.8 10151191
21:00+18n410883 0.8 1016214
17 june, thu
thu1700:00+15n412920 0.0 1017268
03:00+15n4119663 0.0 1017230
06:00+15n5129499 0.0 1018300
09:00+19nne6108523 0.8 1019525
12:00+23ne677065 0.0 10191183
15:00+24ne786724 0.8 10191402
18:00+23ne698083 1.3 10191008
21:00+20ene5129277 3.3 1020408
18 june, fri
fri1800:00+18ene413965 0.6 1021404
03:00+17ene5119838 0.6 1021342
06:00+16ne4109717 0.0 1022316
09:00+19ene688524 0.0 1022496
12:00+23e687489 0.0 10221084
15:00+23e687773 0.3 1022967
18:00+23e68800 1.3 1022968
21:00+19e49920 1.8 1022233